Weather History for Cross City, FL

Change the Weather History Date:

Wednesday, September 11, 2013

  Actual Average Record
Temperature  
Mean Temperature 83 °F 80 °F  
Max Temperature 94 °F 89 °F 95 °F (2010)
Min Temperature 71 °F 70 °F 64 °F (2005)
Degree Days  
Heating Degree Days 0 0  
Month to date heating degree days 0 0  
Since 1 July heating degree days 0 0  
Cooling Degree Days 18 14  
Month to date cooling degree days 184 164  
Year to date cooling degree days 2229 2102  
Growing Degree Days 32 (Base 50)    
Moisture  
Dew Point 70 °F    
Average Humidity 76    
Maximum Humidity 93    
Minimum Humidity 49    
Precipitation  
Precipitation 0.01 in 0.16 in 0.92 in (2007)
Month to date precipitation 0.54 1.98  
Year to date precipitation 53.32 37.35  
Sea Level Pressure  
Sea Level Pressure 30.08 in    
Wind  
Wind Speed 4 mph (ENE)    
Max Wind Speed 13 mph    
Max Gust Speed 23 mph    
T = Trace of Precipitation, MM = Missing Value Source: NWS Daily Summary

Daily Weather History Graph

Daily Weather History Graph

Search for Another Location

Airport:

Trip Planner

Search our weather history database for the weather conditions in past years. The results will help you decide how hot, cold, wet, or windy it might be!

Date:

Astronomy

Sep. 11, 2013 Rise Set
Actual Time 7:15 AM EDT 7:42 PM EDT
Civil Twilight 6:51 AM EDT 8:06 PM EDT
Nautical Twilight 6:23 AM EDT 8:34 PM EDT
Astronomical Twilight 5:54 AM EDT 9:02 PM EDT
Moon 1:13 PM EDT (9/11) No Moon Set
Length of Visible Light 13h 15m
Length of Day
12h 27m
Waxing Crescent, 38% of the Moon is Illuminated
Sep 11
Waxing Crescent
Sep 12
First Quarter
Sep 19
Full
Sep 26
Last Quarter
Oct 4
New

Hourly Weather History & Observations

Time (EDT) Temp. Heat Index Dew Point Humidity Pressure Visibility Wind Dir Wind Speed Gust Speed Precip Events Conditions
12:53 AM 72.0 °F - 68.0 °F 87% 30.12 in - Calm Calm - N/A   Unknown
1:53 AM 72.0 °F - 68.0 °F 87% 30.11 in - NNE 3.5 mph - N/A   Unknown
2:53 AM 72.0 °F - 68.0 °F 87% 30.09 in - Calm Calm - N/A   Unknown
3:53 AM 72.0 °F - 69.1 °F 91% 30.08 in - Calm Calm - N/A   Unknown
4:53 AM 72.0 °F - 69.1 °F 91% 30.08 in - Calm Calm - N/A   Unknown
5:53 AM 71.1 °F - 69.1 °F 93% 30.08 in - NE 3.5 mph - N/A   Unknown
6:53 AM 71.1 °F - 69.1 °F 93% 30.09 in - Calm Calm - N/A   Unknown
7:53 AM 72.0 °F - 69.1 °F 91% 30.12 in - Calm Calm - N/A   Unknown
8:53 AM 77.0 °F - 71.1 °F 82% 30.12 in - NE 5.8 mph - N/A   Unknown
9:53 AM 82.0 °F 87.4 °F 73.0 °F 74% 30.12 in - Variable 5.8 mph - N/A   Unknown
10:53 AM 84.9 °F 90.1 °F 71.1 °F 63% 30.12 in - ENE 5.8 mph - N/A   Unknown
11:53 AM 87.1 °F 92.0 °F 70.0 °F 57% 30.12 in - ESE 10.4 mph - N/A   Unknown
12:53 PM 89.1 °F 94.1 °F 70.0 °F 53% 30.10 in - ENE 8.1 mph - N/A   Unknown
1:53 PM 93.0 °F 100.7 °F 72.0 °F 50% 30.08 in - Variable 5.8 mph - N/A   Unknown
2:53 PM 90.0 °F 95.4 °F 70.0 °F 52% 30.06 in - NE 5.8 mph - N/A   Unknown
3:53 PM 82.0 °F 84.9 °F 68.0 °F 62% 30.06 in - East 4.6 mph - 0.01 in   Unknown
4:53 PM 89.1 °F 94.1 °F 70.0 °F 53% 30.05 in - NE 8.1 mph 16.1 mph N/A   Unknown
5:53 PM 82.0 °F 86.3 °F 71.1 °F 69% 30.04 in - Variable 4.6 mph - N/A   Unknown
6:53 PM 80.1 °F 83.6 °F 71.1 °F 74% 30.04 in - ENE 3.5 mph - N/A   Unknown
7:53 PM 78.1 °F - 72.0 °F 81% 30.04 in - NNE 4.6 mph - N/A   Unknown
8:53 PM 77.0 °F - 71.1 °F 82% 30.05 in - ENE 3.5 mph - N/A   Unknown
9:53 PM 77.0 °F - 72.0 °F 84% 30.06 in - ENE 4.6 mph - N/A   Unknown
10:53 PM 75.9 °F - 72.0 °F 87% 30.06 in - ENE 3.5 mph - N/A   Unknown
11:53 PM 73.0 °F - 70.0 °F 90% 30.06 in - Calm Calm - N/A   Unknown